Crossville, TN

1:18 PM CDT on May 25, 2017 (GMT -0500)
Crossville Memorial-Whitson

Weather History for KCSV - October, 2012

Change the Weather History Date:

Sunday, October 14, 2012

  Actual Average Record
Temperature  
Mean Temperature 63 °F 57 °F  
Max Temperature 66 °F 68 °F 81 °F (1989)
Min Temperature 60 °F 47 °F 26 °F (1988)
Degree Days  
Heating Degree Days 2    
Month to date heating degree days 125  
Since 1 July heating degree days 173  
Cooling Degree Days 0    
Month to date cooling degree days 0  
Year to date cooling degree days 1156  
Growing Degree Days 13 (Base 50)    
Moisture  
Dew Point 58 °F    
Average Humidity 78    
Maximum Humidity 87    
Minimum Humidity 69    
Precipitation  
Precipitation 0.32 in 0.10 in 2.27 in (2014)
Month to date precipitation 2.58 1.40  
Year to date precipitation 39.52 43.40  
Sea Level Pressure  
Sea Level Pressure 30.03 in    
Wind  
Wind Speed 9 mph (SSW)    
Max Wind Speed 22 mph    
Max Gust Speed 31 mph    
Visibility 8 miles    
Events Rain , Thunderstorm    
T = Trace of Precipitation, MM = Missing Value Source: NWS Daily Summary

Daily Weather History Graph

Daily Weather History Graph

Search for Another Location

Airport or City:

Trip Planner

Search our weather history database for the weather conditions in past years. The results will help you decide how hot, cold, wet, or windy it might be!

Date:

Astronomy

Oct. 14, 2012 Rise Set
Actual Time 6:46 AM CDT 6:05 PM CDT
Civil Twilight 6:20 AM CDT 6:30 PM CDT
Nautical Twilight 5:51 AM CDT 7:00 PM CDT
Astronomical Twilight 5:21 AM CDT 7:30 PM CDT
Moon 5:45 AM CDT (10/14) 5:25 PM CDT (10/14)
Length of Visible Light 12h 10m
Length of Day
11h 18m
Waning Crescent, 1% of the Moon is Illuminated
Oct 14
Waning Crescent
Oct 15
New
Oct 21
First Quarter
Oct 29
Full
Nov 6
Last Quarter

Hourly Weather History & Observations

Time (CDT) Temp. Dew Point Humidity Pressure Visibility Wind Dir Wind Speed Gust Speed Precip Events Conditions
12:53 AM 61.0 °F 51.1 °F 70% 30.14 in 10.0 mi South 8.1 mph - N/A   Clear
1:53 AM 60.1 °F 50.0 °F 69% 30.13 in 10.0 mi South 5.8 mph 18.4 mph N/A   Clear
2:53 AM 60.1 °F 51.1 °F 72% 30.12 in 10.0 mi South 10.4 mph 18.4 mph N/A   Clear
3:53 AM 60.1 °F 52.0 °F 75% 30.12 in 10.0 mi South 11.5 mph 21.9 mph N/A   Clear
4:53 AM 60.1 °F 52.0 °F 75% 30.12 in 10.0 mi South 9.2 mph 20.7 mph N/A   Clear
5:21 AM 60.8 °F 53.6 °F 77% 30.15 in 10.0 mi South 10.4 mph 23.0 mph N/A   Mostly Cloudy
5:53 AM 60.1 °F 54.0 °F 80% 30.11 in 10.0 mi South 11.5 mph 27.6 mph N/A   Mostly Cloudy
6:18 AM 60.8 °F 53.6 °F 77% 30.15 in 10.0 mi South 12.7 mph 21.9 mph N/A   Overcast
6:53 AM 60.1 °F 55.0 °F 83% 30.12 in 10.0 mi South 10.4 mph 20.7 mph N/A   Overcast
7:53 AM 61.0 °F 55.0 °F 81% 30.15 in 10.0 mi Variable 5.8 mph 16.1 mph N/A   Overcast
8:53 AM 61.0 °F 55.9 °F 83% 30.17 in 9.0 mi South 9.2 mph - N/A   Overcast
9:53 AM 62.1 °F 55.9 °F 80% 30.16 in 9.0 mi South 13.8 mph 21.9 mph N/A   Overcast
10:53 AM 63.0 °F 57.0 °F 81% 30.14 in 10.0 mi South 11.5 mph 25.3 mph N/A   Overcast
11:53 AM 64.0 °F 57.0 °F 78% 30.12 in 10.0 mi South 11.5 mph 25.3 mph N/A   Overcast
12:53 PM 62.1 °F 57.0 °F 84% 30.07 in 9.0 mi South 12.7 mph 19.6 mph N/A   Overcast
1:19 PM 62.6 °F 57.2 °F 82% 30.10 in 9.0 mi South 11.5 mph 24.2 mph N/A   Overcast
1:53 PM 62.1 °F 57.0 °F 84% 30.04 in 8.0 mi South 9.2 mph 17.3 mph N/A   Overcast
3:39 PM 64.4 °F 57.2 °F 77% 30.02 in 9.0 mi South 9.2 mph 20.7 mph N/A   Mostly Cloudy
3:53 PM 64.0 °F 57.9 °F 80% 29.99 in 10.0 mi SSW 8.1 mph 19.6 mph N/A   Mostly Cloudy
3:58 PM 64.4 °F 57.2 °F 77% 30.03 in 10.0 mi South 10.4 mph 19.6 mph N/A   Mostly Cloudy
4:05 PM 64.4 °F 59.0 °F 83% 30.03 in 10.0 mi South 8.1 mph 16.1 mph N/A   Mostly Cloudy
4:34 PM 64.4 °F 59.0 °F 83% 30.01 in 7.0 mi South 8.1 mph 16.1 mph 0.00 in Rain Light Rain
4:53 PM 64.0 °F 60.1 °F 87% 29.97 in 8.0 mi South 9.2 mph - 0.00 in   Scattered Clouds
5:53 PM 64.0 °F 61.0 °F 90% 29.96 in 3.0 mi South 6.9 mph - 0.01 in Rain Rain
6:53 PM 64.0 °F 61.0 °F 90% 29.96 in 8.0 mi South 8.1 mph - 0.01 in   Overcast
7:53 PM 64.9 °F 61.0 °F 87% 29.94 in 10.0 mi South 8.1 mph 17.3 mph N/A   Overcast
8:53 PM 64.9 °F 61.0 °F 87% 29.94 in 10.0 mi South 5.8 mph - N/A   Mostly Cloudy
9:21 PM 64.4 °F 60.8 °F 88% 29.96 in 10.0 mi South 9.2 mph 18.4 mph N/A Thunderstorm Overcast
9:53 PM 64.9 °F 61.0 °F 87% 29.94 in 9.0 mi SW 4.6 mph - 0.02 in Thunderstorm Overcast
10:04 PM 64.4 °F 62.6 °F 94% 29.97 in 6.0 mi Variable 3.5 mph - 0.01 in Rain Light Rain
10:11 PM 64.4 °F 62.6 °F 94% 29.97 in 8.0 mi West 9.2 mph - 0.01 in Rain Light Rain
10:19 PM 64.4 °F 62.6 °F 94% 29.97 in 2.5 mi West 10.4 mph 24.2 mph 0.07 in Rain Heavy Rain
10:25 PM 66.2 °F 60.8 °F 83% 29.97 in 3.0 mi WSW 8.1 mph 24.2 mph 0.08 in Rain Light Rain
10:30 PM 64.4 °F 62.6 °F 94% 29.97 in 10.0 mi WSW 9.2 mph 23.0 mph 0.08 in Rain Light Rain
10:38 PM 66.2 °F 60.8 °F 83% 29.97 in 10.0 mi WSW 9.2 mph 17.3 mph 0.08 in Thunderstorm Thunderstorm
10:53 PM 64.0 °F 62.1 °F 93% 29.95 in 6.0 mi WNW 13.8 mph 23.0 mph 0.09 in Rain , Thunderstorm Light Rain
10:59 PM 62.6 °F 57.2 °F 82% 29.99 in 4.0 mi West 16.1 mph 31.1 mph 0.02 in Rain , Thunderstorm Light Thunderstorms and Rain
11:06 PM 62.6 °F 57.2 °F 82% 29.99 in 2.5 mi SW 10.4 mph 31.1 mph 0.10 in Rain , Thunderstorm Thunderstorms and Rain
11:11 PM 62.6 °F 57.2 °F 82% 29.98 in 1.5 mi WSW 15.0 mph 26.5 mph 0.17 in Rain , Thunderstorm Heavy Thunderstorms and Rain
11:19 PM 62.6 °F 57.2 °F 82% 29.98 in 3.0 mi WSW 6.9 mph 19.6 mph 0.19 in Rain , Thunderstorm Light Thunderstorms and Rain
11:40 PM 60.8 °F 59.0 °F 94% 29.97 in 10.0 mi WSW 4.6 mph - 0.19 in   Overcast
11:53 PM 61.0 °F 59.0 °F 93% 29.92 in 10.0 mi WSW 4.6 mph - 0.19 in   Overcast